User: anonymous   Login
Location: Acheville
(50.3840°N, 2.8827°E)
Time: 09:39:37
(UTC+00:00)
Language:

H-2A R/B - Orbit

View from above orbital plane
View from above orbital plane
View from above satellite
View from above satellite

Ground track
Ground track

The orbit data is extracted from the following two-line orbital elements,

1 28932U 06002B   22017.96304396  .00001267  00000-0  12008-3 0  9994
2 28932  98.3113  52.1420 0086820 224.6839 196.5296 14.92893919867580
Epoch (UTC): 17 January 2022 23:06:46
Eccentricity: 0.0086820
inclination: 98.3113°
perigee height: 528 km
apogee height: 649 km
right ascension of ascending node: 52.1420°
argument of perigee: 224.6839°
revolutions per day: 14.92893919
mean anomaly at epoch: 196.5296°
orbit number at epoch: 86758

The dashed part of the orbit path shows where the satellite is in the earth's shadow,  

DLR